This is the latest recevied weather packets stored in our database for station/object NEWPRT. If no packets are shown the sender has not sent any weather packets the latest 10 day(s).
| Time | Temp. | Humidity | Pressure | Rain* | Wind** | Luminosity | Snow |
|---|---|---|---|---|---|---|---|
| 1777518731 | - | 71% | 1021.6 hPa | 0 mm | - | - | - |
| 1777518408 | - | 69% | 1021.6 hPa | 0 mm | - | - | - |
| 1777518085 | - | 69% | 1021.7 hPa | 0 mm | - | - | - |
| 1777517762 | - | 68% | 1021.9 hPa | 0 mm | - | - | - |
| 1777517438 | - | 65% | 1021.7 hPa | 0 mm | - | - | - |
| 1777517115 | - | 62% | 1021.5 hPa | 0 mm | - | - | - |
| 1777516793 | - | 65% | 1021.8 hPa | 0 mm | - | - | - |
| 1777516470 | - | 63% | 1021.8 hPa | 0 mm | - | - | - |
| 1777516147 | - | 63% | 1021.8 hPa | 0 mm | - | - | - |
| 1777515823 | - | 62% | 1021.8 hPa | 0 mm | - | - | - |
| 1777515501 | - | 62% | 1021.8 hPa | 0 mm | - | - | - |
| 1777515177 | - | 60% | 1021.9 hPa | 0 mm | - | - | - |
| 1777514856 | - | 60% | 1022 hPa | 0 mm | - | - | - |
| 1777514531 | - | 60% | 1021.8 hPa | 0 mm | - | - | - |
| 1777514208 | - | 59% | 1021.8 hPa | 0 mm | - | - | - |
| 1777513885 | - | 57% | 1021.8 hPa | 0 mm | - | - | - |
| 1777513563 | - | 60% | 1022 hPa | 0 mm | - | - | - |
| 1777513240 | - | 60% | 1022 hPa | 0 mm | - | - | - |
| 1777512916 | - | 55% | 1022.2 hPa | 0 mm | - | - | - |
| 1777512593 | - | 54% | 1022.2 hPa | 0 mm | - | - | - |
| 1777512271 | - | 54% | 1022.4 hPa | 0 mm | - | - | - |
| 1777511947 | - | 56% | 1022.4 hPa | 0 mm | - | - | - |
| 1777511624 | - | 54% | 1022.3 hPa | 0 mm | - | - | - |
| 1777511301 | - | 56% | 1022.5 hPa | 0 mm | - | - | - |
| 1777510978 | - | 57% | 1022.5 hPa | 0 mm | - | - | - |
* Rain latest hour (hover to see other rain measurements)
** Current wind speed in m/s (hover to see current wind gust speed)